Huntingburg, IN

8:27 PM EDT on May 26, 2018 (GMT -0400)
Huntingburg

Weather History for KHNB - October, 2012

Change the Weather History Date:

Thursday, October 4, 2012

  Actual Average Record
Temperature  
Mean Temperature 66 °F -  
Max Temperature 77 °F 71 °F 86 °F (2005)
Min Temperature 55 °F 48 °F 37 °F (2010)
Cooling Degree Days 1    
Growing Degree Days 16 (Base 50)    
Moisture  
Dew Point 54 °F    
Average Humidity 71    
Maximum Humidity 88    
Minimum Humidity 47    
Precipitation  
Precipitation 0.00 in - - ()
Sea Level Pressure  
Sea Level Pressure 30.19 in    
Wind  
Wind Speed 7 mph (SSW)    
Max Wind Speed 15 mph    
Max Gust Speed 21 mph    
Visibility 10 miles    
Events      
Averages and records for this station are not official NWS values.
T = Trace of Precipitation, MM = Missing Value Source: NWS Daily Summary

Daily Weather History Graph

Daily Weather History Graph

Search for Another Location

Airport or City:

Astronomy

Oct. 04, 2012 Rise Set
Actual Time 7:46 AM EDT 7:25 PM EDT
Civil Twilight 7:20 AM EDT 7:51 PM EDT
Nautical Twilight 6:49 AM EDT 8:22 PM EDT
Astronomical Twilight 6:18 AM EDT 8:52 PM EDT
Moon 10:04 PM EDT (10/4) 11:59 AM EDT (10/4)
Length of Visible Light 12h 31m
Length of Day
11h 38m
Waning Gibbous, 82% of the Moon is Illuminated
Oct 4
Waning Gibbous
Oct 8
Last Quarter
Oct 15
New
Oct 21
First Quarter
Oct 29
Full

Hourly Weather History & Observations

Time (EDT) Temp. Dew Point Humidity Pressure Visibility Wind Dir Wind Speed Gust Speed Precip Events Conditions
12:15 AM 60.8 °F 50.0 °F 68% 30.14 in 10.0 mi South 4.6 mph - N/A   Clear
12:35 AM 59.0 °F 50.0 °F 72% 30.15 in 10.0 mi SSW 5.8 mph - N/A   Scattered Clouds
12:55 AM 60.8 °F 51.8 °F 72% 30.16 in 10.0 mi WSW 8.1 mph - N/A   Mostly Cloudy
1:15 AM 60.8 °F 50.0 °F 68% 30.16 in 10.0 mi SSW 5.8 mph - N/A   Mostly Cloudy
1:35 AM 59.0 °F 50.0 °F 72% 30.15 in 10.0 mi South 5.8 mph - N/A   Partly Cloudy
1:55 AM 59.0 °F 50.0 °F 72% 30.15 in 10.0 mi South 5.8 mph - N/A   Clear
2:15 AM 59.0 °F 51.8 °F 77% 30.15 in 10.0 mi South 5.8 mph - N/A   Mostly Cloudy
2:35 AM 57.2 °F 51.8 °F 82% 30.15 in 10.0 mi SSE 5.8 mph - N/A   Scattered Clouds
2:55 AM 57.2 °F 50.0 °F 77% 30.15 in 10.0 mi SSE 4.6 mph - N/A   Clear
3:15 AM 55.4 °F 50.0 °F 82% 30.15 in 10.0 mi SSE 5.8 mph - N/A   Clear
3:35 AM 57.2 °F 51.8 °F 82% 30.15 in 10.0 mi South 4.6 mph - N/A   Partly Cloudy
3:55 AM 57.2 °F 51.8 °F 82% 30.15 in 10.0 mi South 5.8 mph - N/A   Mostly Cloudy
4:15 AM 57.2 °F 51.8 °F 82% 30.15 in 10.0 mi South 5.8 mph - N/A   Overcast
4:35 AM 57.2 °F 51.8 °F 82% 30.16 in 10.0 mi South 4.6 mph - N/A   Mostly Cloudy
4:55 AM 57.2 °F 51.8 °F 82% 30.17 in 10.0 mi South 5.8 mph - N/A   Partly Cloudy
5:15 AM 57.2 °F 51.8 °F 82% 30.17 in 10.0 mi SSE 5.8 mph - N/A   Scattered Clouds
5:35 AM 57.2 °F 51.8 °F 82% 30.18 in 10.0 mi SSE 6.9 mph - N/A   Partly Cloudy
5:55 AM 57.2 °F 51.8 °F 82% 30.18 in 10.0 mi South 6.9 mph - N/A   Partly Cloudy
6:15 AM 57.2 °F 51.8 °F 82% 30.19 in 10.0 mi SSE 6.9 mph - N/A   Clear
6:55 AM 57.2 °F 51.8 °F 82% 30.20 in 10.0 mi SSE 5.8 mph - N/A   Clear
7:15 AM 57.2 °F 51.8 °F 82% 30.20 in 10.0 mi South 4.6 mph - N/A   Clear
7:35 AM 55.4 °F 51.8 °F 88% 30.20 in 10.0 mi South 3.5 mph - N/A   Clear
7:55 AM 55.4 °F 51.8 °F 88% 30.20 in 10.0 mi South 5.8 mph - N/A   Clear
8:15 AM 55.4 °F 51.8 °F 88% 30.20 in 10.0 mi South 5.8 mph - N/A   Clear
8:35 AM 57.2 °F 53.6 °F 88% 30.21 in 10.0 mi South 5.8 mph - N/A   Scattered Clouds
8:55 AM 59.0 °F 53.6 °F 82% 30.21 in 10.0 mi South 6.9 mph - N/A   Scattered Clouds
9:15 AM 60.8 °F 53.6 °F 77% 30.22 in 10.0 mi South 9.2 mph - N/A   Clear
9:35 AM 60.8 °F 55.4 °F 82% 30.22 in 10.0 mi South 9.2 mph - N/A   Clear
9:55 AM 62.6 °F 55.4 °F 77% 30.22 in 10.0 mi SSW 8.1 mph - N/A   Clear
10:15 AM 64.4 °F 55.4 °F 73% 30.23 in 10.0 mi SW 11.5 mph - N/A   Clear
10:35 AM 66.2 °F 57.2 °F 73% 30.23 in 10.0 mi SW 10.4 mph - N/A   Clear
10:55 AM 66.2 °F 57.2 °F 73% 30.24 in 10.0 mi SW 12.7 mph - N/A   Clear
11:15 AM 68.0 °F 57.2 °F 68% 30.24 in 10.0 mi SW 10.4 mph - N/A   Clear
11:35 AM 69.8 °F 57.2 °F 64% 30.24 in 10.0 mi SW 11.5 mph - N/A   Clear
11:55 AM 69.8 °F 57.2 °F 64% 30.24 in 10.0 mi SW 10.4 mph - N/A   Clear
12:15 PM 71.6 °F 59.0 °F 64% 30.23 in 10.0 mi SSW 11.5 mph - N/A   Clear
12:35 PM 73.4 °F 59.0 °F 61% 30.23 in 10.0 mi SSW 11.5 mph 16.1 mph N/A   Clear
12:55 PM 73.4 °F 59.0 °F 61% 30.22 in 10.0 mi SW 11.5 mph 17.3 mph N/A   Clear
1:15 PM 73.4 °F 59.0 °F 61% 30.22 in 10.0 mi SW 11.5 mph - N/A   Clear
1:35 PM 75.2 °F 59.0 °F 57% 30.21 in 10.0 mi SW 12.7 mph 17.3 mph N/A   Clear
1:55 PM 75.2 °F 57.2 °F 53% 30.20 in 10.0 mi SW 12.7 mph - N/A   Clear
2:35 PM 77.0 °F 57.2 °F 50% 30.18 in 10.0 mi SSW 10.4 mph - N/A   Clear
2:55 PM 77.0 °F 57.2 °F 50% 30.18 in 10.0 mi SSW 13.8 mph 20.7 mph N/A   Clear
3:15 PM 77.0 °F 57.2 °F 50% 30.17 in 10.0 mi SSW 11.5 mph - N/A   Clear
3:35 PM 77.0 °F 57.2 °F 50% 30.17 in 10.0 mi SW 15.0 mph 18.4 mph N/A   Clear
3:55 PM 77.0 °F 57.2 °F 50% 30.17 in 10.0 mi WSW 11.5 mph 17.3 mph N/A   Clear
4:15 PM 77.0 °F 57.2 °F 50% 30.16 in 10.0 mi SW 12.7 mph - N/A   Clear
4:35 PM 77.0 °F 57.2 °F 50% 30.16 in 10.0 mi WSW 12.7 mph 17.3 mph N/A   Partly Cloudy
4:55 PM 77.0 °F 57.2 °F 50% 30.16 in 10.0 mi SW 10.4 mph - N/A   Partly Cloudy
5:15 PM 77.0 °F 55.4 °F 47% 30.16 in 10.0 mi SSW 12.7 mph - N/A   Clear
11:55 PM 64.4 °F 55.4 °F 73% 30.16 in 10.0 mi South 8.1 mph - N/A   Clear